[[{"header":{"parameterUnit":"m.s-1","parameterCategory":1,"la1":30.2991,"la2":30.254,"lo1":-89.0895,"lo2":-89.0444,"dy":0.0017,"dx":0.0017,"nx":28,"ny":28,"refTime":"2024-05-14T21:00:00:Z","depth":0,"parameterNumber":2,"parameterNumberName":"U-component_of_WINDS"},"data":[0,0,0,0,0,0,0,0,0,0,0,0,0,0,0,0,0,0,0,0,0,0,0,0,0,0,0,0,0,0,0,0,0,0,0,0,0,0,0,0,0,0,0,0,0,0,0,0,0,0,0,0,0,0,0,0,0,0,3.206,3.2061,0,3.2122,3.2122,3.2123,3.2131,3.213,3.2129,3.2129,3.2198,3.22,3.2202,0,0,0,0,0,0,0,0,0,0,0,0,0,3.1955,3.1957,3.206,3.2061,3.2062,3.2122,3.2122,3.2123,3.2131,3.213,3.2129,3.2129,3.2197,3.22,3.2202,0,0,0,0,0,0,0,0,0,0,0,0,0,3.2007,3.1958,3.206,3.2072,3.2074,3.2121,3.2122,3.2123,3.2131,3.213,3.2129,3.2128,3.2196,3.2199,3.2203,3.2244,0,0,3.2214,3.2215,0,0,0,0,0,0,0,0,3.2004,3.2011,3.207,3.2072,3.2074,3.2117,3.2111,3.2164,3.2131,3.211,3.2129,3.2128,3.2172,3.2177,3.2191,3.2247,3.225,3.2214,3.2216,3.2218,3.2219,0,0,0,0,0,0,0,3.2001,3.2009,3.2085,3.2071,3.2073,3.2077,3.2083,3.2121,3.2145,3.2111,3.2112,3.2119,3.2173,3.2188,3.2193,3.2251,3.2214,3.2217,3.222,3.2221,3.2346,3.2347,0,0,0,0,0,0,3.1994,3.2006,3.2083,3.2086,3.2036,3.208,3.2087,3.2104,3.2145,3.215,3.212,3.2119,3.2182,3.2189,3.2195,3.2248,3.2218,3.2221,3.2223,3.2345,3.2346,3.2348,0,0,0,0,0,0,3.1992,3.2001,3.208,3.2046,3.2057,3.2082,3.2102,3.2106,3.2121,3.2151,3.2156,3.213,3.2182,3.219,3.2232,3.225,3.2223,3.2226,3.2344,3.2346,3.2347,3.2352,0,0,0,0,0,0,3.1989,3.2,3.2014,3.2046,3.2058,3.2113,3.2103,3.2108,3.2126,3.2126,3.2162,3.2167,3.2182,3.2226,3.2235,3.2255,3.2229,3.2342,3.2345,3.2347,3.235,3.2353,3.2356,0,0,0,0,0,3.1985,3.2013,3.2015,3.2024,3.2076,3.2114,3.2122,3.2136,3.2128,3.2143,3.2163,3.2166,3.2246,3.2231,3.2241,3.2261,3.2341,3.2344,3.2346,3.2349,3.2353,3.2356,0,0,0,0,0,0,3.1984,3.2018,3.202,3.2059,3.2084,3.2116,3.2135,3.2139,3.2168,3.2167,3.2185,3.2193,3.2235,3.2252,3.2234,3.2305,3.2293,3.2298,3.2292,3.2296,3.2299,3.2294,3.2232,0,0,0,0,0,3.1988,3.2014,3.2043,3.2075,3.2087,3.2109,3.2127,3.2135,3.2163,3.2174,3.2196,3.2224,3.2256,3.2277,3.2307,3.2352,3.2362,3.2372,3.2375,3.2377,3.2382,3.2409,3.2415,3.2356,3.2356,3.2356,0,0,3.1997,3.2019,3.2035,3.2076,3.2096,3.2125,3.2118,3.2149,3.2171,3.2179,3.2219,3.2237,3.227,3.2314,3.2334,3.233,3.24,3.2381,3.2382,3.2385,3.2413,3.2418,3.2423,3.2358,3.2358,3.2358,0,0,3.2029,3.2047,3.2077,3.2097,3.2127,3.2142,3.2149,3.2181,3.2193,3.2233,3.224,3.2269,3.2322,3.2346,3.2365,3.2408,3.2413,3.2417,3.2434,3.2461,3.2466,3.247,3.2487,3.2493,3.2421,3.2422,3.2422,0,3.2037,3.2079,3.2092,3.2123,3.2142,3.2148,3.218,3.22,3.224,3.2254,3.2247,3.2316,3.2339,3.2389,3.24,3.2414,3.2426,3.2414,3.2463,3.2468,3.2472,3.2489,3.2495,3.2422,3.2422,3.2422,3.2422,0,3.2089,3.2118,3.2139,3.2176,3.2197,3.2228,3.2248,3.2269,3.2276,3.2292,3.2336,3.2363,3.24,3.2413,3.242,3.2465,3.2462,3.2459,3.2449,3.2478,3.2494,3.2501,3.2423,3.2423,3.2422,3.2422,0,0,3.2121,3.2165,3.2173,3.2191,3.2226,3.225,3.2283,3.2318,3.2336,3.2364,3.2393,3.2439,3.2438,3.2459,3.247,3.2494,3.2529,3.2489,3.249,3.2497,3.2583,3.2586,3.2593,3.2532,3.2533,3.2534,3.2581,0,3.2159,3.2215,3.2229,3.2278,3.2307,3.2315,3.2344,3.237,3.2386,3.2415,3.2434,3.2467,3.2461,3.2474,3.2498,3.252,3.2547,3.2516,3.2562,3.2564,3.2555,3.2601,3.2604,3.2647,3.2587,3.2589,3.2589,0,3.2209,3.2237,3.2289,3.2322,3.2335,3.236,3.2395,3.2421,3.2452,3.2463,3.2487,3.2496,3.2534,3.252,3.2574,3.2553,3.2573,3.2586,3.2589,3.2595,3.2579,3.2611,3.2661,3.2668,3.2599,3.2598,3.2598,0,3.2231,3.2281,3.2319,3.2334,3.2373,3.2391,3.2408,3.2438,3.2459,3.249,3.2504,3.2539,3.2559,3.2588,3.2607,3.2595,3.266,3.2648,3.2672,3.2672,3.2686,3.2685,3.2742,3.2696,3.2696,3.2696,3.2696,0,3.2272,3.2304,3.2329,3.2353,3.239,3.2406,3.2444,3.2461,3.2488,3.2517,3.2526,3.2554,3.2577,3.2609,3.2625,3.2668,3.2677,3.2688,3.2692,3.2688,3.2687,3.2703,3.2701,3.2698,3.2697,3.2697,3.2697,0,3.2302,3.232,3.2362,3.2395,3.2405,3.2431,3.2461,3.2485,3.2502,3.2539,3.2549,3.2577,3.2615,3.2636,3.2685,3.2695,3.2744,3.2746,3.2733,3.2736,3.276,3.2758,3.283,3.2841,3.2786,3.2786,3.2787,0,3.2327,3.2352,3.2388,3.2408,3.2425,3.2456,3.2478,3.2495,3.2518,3.2556,3.2577,3.2615,3.2646,3.2707,3.2733,3.2771,3.2775,3.2797,3.2781,3.2777,3.2778,3.2777,3.278,3.2801,3.2801,3.2802,3.2802,0,3.2372,3.238,3.2409,3.2443,3.2468,3.2495,3.2523,3.2539,3.2562,3.2587,3.2625,3.265,3.2699,3.2738,3.2778,3.2799,3.2806,3.2807,3.2815,3.2812,3.2804,3.2811,3.2743,3.2806,3.2805,3.2805,3.2805,3.2805,3.2402,3.2425,3.2454,3.2488,3.251,3.2536,3.2562,3.2582,3.2613,3.2653,3.2663,3.2704,3.2736,3.2791,3.2812,3.2847,3.2843,3.2854,3.2857,3.286,3.2862,3.2797,3.2854,3.2854,3.2854,3.2854,3.2854,0,3.2449,3.2468,3.2498,3.2536,3.2563,3.2565,3.2596,3.262,3.2655,3.2684,3.2715,3.276,3.2799,3.2827,3.2867,3.2889,3.2894,3.2899,3.2899,3.2904,3.2862,3.2852,3.2895,3.2895,3.2895,3.2895,3.2895,3.2895,3.2476,3.2516,3.2528,3.2581,3.26,3.2639,3.2657,3.2682,3.2706,3.2756,3.2787,3.2805,3.2835,3.2877,3.2914,3.2921,3.2937,3.2942,3.2951,3.2911,3.2907,3.2903,3.2893,3.2945,3.2945,3.2991,3.2991,3.2991]},{"header":{"parameterUnit":"m.s-1","parameterCategory":1,"la1":30.2991,"la2":30.254,"lo1":-89.0895,"lo2":-89.0444,"dy":0.0017,"dx":0.0017,"nx":28,"ny":28,"refTime":"2024-05-14T21:00:00:Z","depth":0,"parameterNumber":3,"parameterNumberName":"V-component_of_WINDS"},"data":[0,0,0,0,0,0,0,0,0,0,0,0,0,0,0,0,0,0,0,0,0,0,0,0,0,0,0,0,0,0,0,0,0,0,0,0,0,0,0,0,0,0,0,0,0,0,0,0,0,0,0,0,0,0,0,0,0,0,1.0239,1.0239,0,1.0242,1.0242,1.0242,1.0203,1.0201,1.02,1.0199,1.0201,1.0202,1.0203,0,0,0,0,0,0,0,0,0,0,0,0,0,1.0197,1.0198,1.0239,1.0239,1.0239,1.0242,1.0242,1.0242,1.0203,1.0201,1.02,1.0199,1.0201,1.0202,1.0203,0,0,0,0,0,0,0,0,0,0,0,0,0,1.0209,1.0199,1.0239,1.022,1.0218,1.0242,1.0242,1.0242,1.0203,1.0201,1.02,1.0198,1.0201,1.0202,1.0204,1.0245,0,0,1.0208,1.0209,0,0,0,0,0,0,0,0,1.0209,1.0211,1.0223,1.0222,1.022,1.022,1.0228,1.0243,1.0203,1.0209,1.0199,1.0198,1.0209,1.021,1.0214,1.0246,1.0246,1.0209,1.021,1.021,1.0211,0,0,0,0,0,0,0,1.0208,1.0211,1.024,1.0223,1.0221,1.021,1.021,1.0231,1.0218,1.0208,1.0205,1.0206,1.0208,1.0212,1.0213,1.0246,1.0209,1.021,1.0211,1.0212,1.0307,1.0309,0,0,0,0,0,0,1.021,1.021,1.024,1.024,1.021,1.0212,1.0212,1.0222,1.0217,1.0215,1.0208,1.0204,1.021,1.0212,1.0213,1.0259,1.021,1.0212,1.0213,1.0305,1.0307,1.0309,0,0,0,0,0,0,1.0209,1.0213,1.024,1.0224,1.0227,1.0215,1.0226,1.0223,1.0227,1.0217,1.0214,1.0215,1.0209,1.0211,1.0237,1.0258,1.0212,1.0214,1.0304,1.0306,1.0308,1.0352,0,0,0,0,0,0,1.0208,1.0213,1.023,1.0225,1.0228,1.0265,1.0227,1.0224,1.023,1.0226,1.0223,1.0221,1.0208,1.0235,1.0238,1.026,1.0215,1.0302,1.0305,1.0307,1.0349,1.0356,1.0362,0,0,0,0,0,1.0207,1.0243,1.0231,1.0235,1.0249,1.0266,1.0268,1.0252,1.0232,1.0248,1.0241,1.0221,1.0256,1.0238,1.0241,1.0264,1.03,1.0304,1.0307,1.0346,1.0354,1.0362,0,0,0,0,0,0,1.0252,1.0242,1.0229,1.0265,1.0266,1.026,1.0279,1.0263,1.027,1.0266,1.0246,1.0246,1.0274,1.0271,1.0251,1.0302,1.0274,1.0279,1.0302,1.031,1.0317,1.0316,1.0216,0,0,0,0,0,1.0265,1.0281,1.0272,1.0304,1.0305,1.0292,1.0299,1.0287,1.0288,1.0288,1.0283,1.0284,1.0295,1.0303,1.0312,1.0348,1.0345,1.0365,1.0372,1.0377,1.0381,1.0396,1.0404,1.0321,1.0321,1.0321,0,0,1.0295,1.0291,1.0302,1.0313,1.0313,1.0327,1.0293,1.0312,1.0322,1.0291,1.0314,1.031,1.031,1.034,1.0353,1.0339,1.0403,1.0382,1.0386,1.0387,1.04,1.0408,1.0415,1.0323,1.0323,1.0322,0,0,1.0355,1.0355,1.038,1.038,1.038,1.037,1.0376,1.0371,1.0367,1.039,1.0366,1.0377,1.0397,1.0397,1.0399,1.0455,1.0436,1.0459,1.0493,1.0507,1.0514,1.0519,1.0537,1.0543,1.0463,1.0463,1.0463,0,1.0391,1.0413,1.0395,1.0414,1.0417,1.039,1.0413,1.0414,1.0417,1.042,1.0404,1.0426,1.0424,1.0452,1.0465,1.0469,1.0473,1.0459,1.0515,1.052,1.0525,1.0541,1.0548,1.0465,1.0465,1.0465,1.0464,0,1.0455,1.0471,1.0491,1.0493,1.0499,1.0521,1.0505,1.0513,1.0499,1.0491,1.0512,1.0508,1.0515,1.0521,1.0509,1.0546,1.0536,1.0518,1.049,1.0536,1.055,1.0556,1.0469,1.0468,1.0467,1.0467,0,0,1.0545,1.0535,1.0542,1.0541,1.0537,1.0548,1.0567,1.0573,1.0579,1.0581,1.0595,1.061,1.0592,1.0595,1.0581,1.0595,1.0635,1.0574,1.0574,1.0583,1.0672,1.0685,1.0692,1.0623,1.0624,1.0625,1.0671,0,1.0601,1.0633,1.0616,1.0649,1.0661,1.0633,1.0649,1.0647,1.0639,1.0647,1.0638,1.0648,1.0624,1.0625,1.0637,1.0628,1.0652,1.0624,1.0633,1.0634,1.0632,1.0701,1.0715,1.0759,1.0677,1.0678,1.0679,0,1.0672,1.0675,1.0709,1.0699,1.0704,1.0718,1.072,1.0729,1.0725,1.0718,1.0719,1.0702,1.0717,1.069,1.0709,1.069,1.0693,1.0688,1.0689,1.0689,1.0658,1.0699,1.0773,1.0779,1.0688,1.0688,1.0687,0,1.073,1.0743,1.0764,1.0765,1.0755,1.0765,1.0761,1.0756,1.0759,1.0761,1.0762,1.0766,1.0767,1.077,1.0752,1.0735,1.0773,1.0745,1.0766,1.0766,1.0774,1.0774,1.0847,1.0779,1.0779,1.0779,1.0779,0,1.0794,1.0815,1.079,1.0803,1.0825,1.0804,1.0826,1.0819,1.0814,1.0824,1.08,1.0809,1.0787,1.0794,1.078,1.0796,1.0798,1.0791,1.0787,1.0792,1.0793,1.0793,1.0788,1.0781,1.078,1.078,1.078,0,1.0863,1.0847,1.0868,1.0855,1.0853,1.0869,1.0858,1.0868,1.0857,1.0869,1.0871,1.0854,1.086,1.0843,1.0847,1.0838,1.0861,1.0853,1.0862,1.0858,1.0879,1.0876,1.0954,1.0961,1.089,1.0891,1.0892,0,1.0903,1.0919,1.0907,1.0911,1.0908,1.0917,1.0919,1.0898,1.0902,1.0897,1.0907,1.0911,1.0913,1.0923,1.091,1.0912,1.0903,1.0929,1.0903,1.0906,1.09,1.0898,1.0898,1.0935,1.0936,1.0936,1.0937,0,1.0976,1.0967,1.0972,1.0973,1.0976,1.0976,1.0974,1.0979,1.0957,1.0961,1.0967,1.0968,1.097,1.0974,1.0972,1.0967,1.0947,1.0945,1.095,1.0954,1.0958,1.0953,1.0874,1.0943,1.0943,1.0942,1.0942,1.0942,1.103,1.1041,1.1034,1.1039,1.1035,1.1033,1.1041,1.103,1.1034,1.1034,1.1022,1.1029,1.1021,1.1017,1.1013,1.1017,1.1005,1.1012,1.1013,1.1015,1.1017,1.0958,1.1017,1.1017,1.1017,1.1017,1.1017,0,1.11,1.1093,1.1098,1.1095,1.1098,1.1079,1.1075,1.1079,1.1085,1.108,1.1082,1.1086,1.1088,1.1074,1.1074,1.108,1.1071,1.108,1.1079,1.1077,1.103,1.1025,1.1087,1.1087,1.1087,1.1087,1.1087,1.1087,1.1136,1.1152,1.1141,1.1154,1.1147,1.1153,1.1152,1.115,1.1145,1.1151,1.1152,1.1143,1.1133,1.1131,1.1132,1.1127,1.1127,1.114,1.1132,1.1088,1.1081,1.1074,1.1069,1.114,1.114,1.1179,1.1179,1.1179]}]]